weather.gov     
National Weather Service

Regional Weather Roundup
NWS Homepage
This page is being discontinued on March 12, 2014.
The same data is available at this site. Please update your bookmarks.
Thank you, and we apologize for the inconvenience.
Please send an email to SR-SRH.Webmaster@noaa.gov with any concerns.


Current Version
Previous Version:    01  02  03  04  05  06  07  08  09  10  11  12  13  14  15  16  17  18  19  20  21  22  23  24  25  26  27  28  
[Printable]
077
ASUS44 KLCH 180510
RWRLCH
RWRLCH
REGIONAL WEATHER ROUNDUP
NATIONAL WEATHER SERVICE LAKE CHARLES LA
1200 AM CDT FRI APR 18 2014

Note: "fair" indicates few or no clouds below 12,000 feet with no
significant weather and/or obstructions to visibility.


ACROSS SOUTHEAST TEXAS

CITY           SKY/WX    TMP DP  RH WIND       PRES   REMARKS
BEAUMONT       CLOUDY    60  54  80 N7        30.14F
BEAUMONT CITY  CLOUDY    58  55  88 NE5       30.16R
ORANGE         CLEAR     56  55  94 N3        30.16S
JASPER         CLEAR     55  52  90 NE3       30.20S
$$

ACROSS CENTRAL LOUISIANA

CITY           SKY/WX    TMP DP  RH WIND       PRES   REMARKS
LEESVILLE      CLEAR     53  51  93 N6        30.17R
FULLERTON        N/A     53  50  89 CALM      30.15R
ALEXANDRIA INT MOCLDY    54  53  97 CALM      30.15R
ESLER FIELD    FOG       55  53  93 CALM      30.17R VSB 3/4
DERIDDER         N/A     51  49  95 CALM      30.19R
OAKDALE        CLOUDY    56  55  94 CALM      30.16R
OPELOUSAS      MOCLDY    57  56  95 N6        30.14R
$$

ACROSS SOUTHWEST AND SOUTH CENTRAL LOUISIANA

CITY           SKY/WX    TMP DP  RH WIND       PRES   REMARKS
SULPHUR        CLEAR     58  55  88 N5        30.16R
LAKE CHARLES   CLEAR     56  53  90 N5        30.15R
CHENNAULT INT  CLEAR     56  53  89 N3        30.16R
CAMERON PHI      N/A     59  55  88 N7        30.14S
DEQUINCY       CLOUDY    55  52  91 CALM      30.16S
JENNINGS       CLOUDY    58  56  94 N5        30.14S
LAFAYETTE      CLOUDY    60  58  92 CALM      30.13R
NEW IBERIA     CLOUDY    63  59  87 NE7       30.13S
ABBEVILLE      CLOUDY    68  68 100 CALM      30.13S
PATTERSON      CLOUDY    63  59  88 NE7         N/A
SALT POINT       N/A     66  61  84 CALM      30.10S
$$

SELECTED SITES ACROSS THE REGION

CITY           SKY/WX    TMP DP  RH WIND       PRES   REMARKS
HOUSTON BUSH   MOCLDY    63  54  72 NE6       30.15S
HOUSTON HOBBY  MOCLDY    63  54  72 E6        30.14S
GALVESTON      CLOUDY    62  58  86 N9        30.14S
COLLEGE STAT   CLOUDY    61  60  97 SW3       30.16F FOG
CONROE         CLOUDY    62  56  80 CALM      30.17S
HUNTSVILLE     CLOUDY    64  53  67 SE5       30.17R
LUFKIN         MOCLDY    60  51  72 SE3       30.17S
SHREVEPORT     MOCLDY    55  51  86 E5        30.17F
MONROE         PTCLDY    53  52  96 NE3       30.19S
NATCHEZ MS     CLOUDY    57  54  88 NE3       30.17R
BATON ROUGE    CLOUDY    62  57  83 NE7       30.13S
N.O. INTL ARPT CLOUDY    64  59  83 E13G21    30.12R
SLIDELL        CLOUDY    62  58  86 NE5       30.13S
$$

MARINE REPORTS

STATION/POSITION TIME  TEMP    WIND        PRES    VSBY  WAVE
                       AIR SEA DIR/SP/G                  HT/PER
                 (UTC) (F)     (DEG/KT/KT) (MB)    (MI)  (FT/S)
BUOY 30 S HIGH I 0500   64 65   50/ 14/ 16 1019.6F         4/ 6
SEA RIM ST PARK  0500   60      30/  8/  9 1021.0F
PORT ARTHUR      0500      65   10/  4/  6 1020.7R
SABINE PASS N    0500   59 64   10/  7/  8 1020.5R
TEXAS POINT      0500   58 64   10/  8/  9 1020.7R
CALCASIEU PASS   0500   59 65   20/  5/  6 1021.3F
LK CHARLES BEACH 0500   58 65              1021.6R
MARSH ISLAND     0400   63      50/  9/ 11   N/A
FRESH WATER LOCK 0500   61 62   10/  4/  5 1019.8S
AMERADA PASS     0500   63 61   50/  2/  5 1019.4R
$$




U.S. Dept. of Commerce
NOAA National Weather Service
1325 East West Highway
Silver Spring, MD 20910
E-mail: w-nws.webmaster@noaa.gov
Page last modified: May 16, 2007
NATIONAL WEATHER SERVICE: for Safety, for Work, for Fun - FOR LIFE